Tracking 30995 objects as of 5-Jul-2025
HD Live streaming from Space Station
objects crossing your sky now

WESTFORD NEEDLES

Track WESTFORD NEEDLES now!
10-day predictions
WESTFORD NEEDLES is classified as:


NORAD ID: 2377
Int'l Code: 1963-014X
Perigee: 3,067.4 km
Apogee: 4,180.1 km
Inclination: 87.4 °
Period: 165.7 minutes
Semi major axis: 9994 km
RCS: 0.1884 m2 (medium)
Launch date: May 9, 1963
Source: United States (US)
Launch site: AIR FORCE WESTERN TEST RANGE (AFWTR)
Your satellite tracking list
SJ-6G
Track 1 satellite(s)




NASA's NSSDC Master Catalog

Two Line Element Set (TLE):
1 02377U 63014X   25158.04705811  .00000078  00000-0  29548-1 0  9994
2 02377  87.3840 199.6670 0556636 323.4179  32.9852  8.68848023893432
Source of the keplerian elements: AFSPC